SCP
1 1 1 1 2 2 2 1 1 1 2 2 2 1 1 1 1 1 1 1 1 1 1 2 2 2 2 2 2 2 1 1 1 1 1 1 1 1 1 1 1 2 2
1 1 1 2 2 2 2 2 2 2 2 2 2 2 1 1 1 1 1 1 1 1 1 2 2 3 3 3 2 2 2 2 1 1 1 1 1 1 1 1 1 1 1
1 1 2 2 2 2 3 3 2 2 2 2 2 2 2 1 1 1 1 1 1 1 1 2 2 3 5 5 3 2 2 2 2 1 1 1 1 1 1 1 1 1 1
1 1 1 2 2 2 3 3 3 3 3 3 3 2 2 2 2 2 2 2 2 2 1 1 2 3 4 5 4 3 3 2 2 2 2 2 1 1 1 1 1 1 1
1 1 1 1 2 3 3 3 4 4 4 3 3 3 3 2 3 3 3 3 3 3 3 2 2 2 3 3 3 3 3 3 2 2 2 2 1 1 1 1 1 1 1
1 1 1 2 3 3 3 3 4 4 4 3 3 3 2 2 3 3 4 4 4 5 5 4 3 3 3 3 2 3 3 3 3 3 3 2 1 1 1 1 1 1 1
1 1 1 2 3 4 3 3 4 4 4 3 2 2 2 2 3 3 3 3 4 5 6 5 4 3 3 3 3 3 2 3 4 4 3 2 1 1 1 1 1 1 1
1 1 2 3 3 3 3 3 4 4 3 2 2 2 2 2 3 3 4 4 4 5 5 4 3 3 3 3 3 3 2 3 4 4 3 2 1 1 1 1 1 1 1
1 1 2 2 3 2 2 3 3 3 3 2 2 2 2 2 3 3 4 5 5 5 5 4 4 4 3 3 3 2 2 2 3 3 3 2 2 2 2 2 2 1 1
1 1 2 2 2 2 3 3 3 3 3 3 3 2 2 2 2 3 3 4 5 5 5 5 5 5 4 3 3 2 2 2 3 3 2 2 2 2 2 2 2 2 2
2 2 2 2 2 3 3 3 3 3 3 3 3 3 3 2 2 2 2 3 3 3 3 4 4 4 4 4 3 2 2 2 3 3 2 2 2 2 2 3 3 4 4
2 2 2 3 3 4 4 4 3 3 3 3 3 3 3 3 3 3 3 3 3 3 2 3 3 3 3 4 4 3 3 3 3 3 3 2 2 3 3 4 4 5 6
3 3 3 3 4 5 5 5 4 3 3 3 3 4 4 4 4 4 4 4 4 3 3 3 3 3 3 4 4 4 4 3 3 3 3 3 3 3 4 5 6 6 7
4 4 4 4 4 5 6 5 4 4 4 4 4 4 4 5 5 5 5 5 5 4 4 3 3 3 4 4 4 4 4 4 4 4 4 4 3 3 4 5 7 8 9
6 5 4 4 4 6 6 5 4 4 5 5 5 5 5 6 6 6 7 7 6 5 5 4 4 4 4 4 4 5 5 6 5 5 4 4 3 3 3 4 6 9 10
6 6 5 5 5 6 6 5 4 4 5 5 5 6 6 7 7 7 8 8 7 7 6 5 4 4 4 3 3 5 6 7 7 7 6 5 4 4 4 4 4 5 7
6 6 6 5 5 5 5 4 4 4 5 5 6 6 7 7 8 8 8 9 9 8 8 7 6 5 4 2 2 3 5 6 8 9 8 7 6 6 6 5 4 4 4
6 6 6 5 4 4 4 4 4 5 6 7 8 8 7 8 9 9 9 10 11 11 10 10 9 7 5 3 1 2 3 5 7 9 10 10 9 8 8 7 6 5 5
6 6 6 4 3 3 3 4 5 6 8 9 10 9 8 7 8 9 10 11 12 12 12 12 12 11 7 4 2 2 3 5 7 9 9 9 9 8 7 7 8 8 7
7 6 5 4 3 3 4 5 6 8 9 10 10 8 7 6 7 8 9 10 10 10 11 12 13 13 8 4 2 2 4 6 8 8 8 7 6 5 4 6 8 8 8
8 6 5 4 4 4 5 6 8 8 8 7 7 6 5 5 5 7 8 8 8 8 8 9 11 10 7 4 2 2 4 6 7 7 7 6 4 2 2 3 5 6 6
8 7 6 6 5 5 6 7 8 8 7 6 6 5 5 4 5 6 7 8 9 8 7 6 7 7 6 5 3 2 3 4 4 5 6 6 4 1 0 1 2 2 2
7 7 7 7 7 7 7 7 8 7 7 7 6 5 5 5 6 8 9 9 10 9 7 5 5 5 6 6 4 2 1 2 3 4 5 4 2 1 0 0 0 1 1
6 6 6 7 8 7 7 7 7 6 6 7 6 5 5 5 8 10 10 8 9 8 6 4 4 4 5 6 6 4 2 2 3 5 6 4 2 1 1 1 1 1 1
3 4 5 6 7 7 6 6 6 6 6 7 7 6 5 5 8 10 8 6 6 5 3 3 3 3 3 3 5 5 4 3 4 7 8 5 3 2 2 2 2 2 2
2 3 4 5 6 6 6 7 7 7 7 7 7 6 5 6 7 8 6 4 3 2 2 2 2 2 1 1 2 4 4 4 5 8 9 7 4 3 3 3 3 3 2
Wind_Speed
9 8 8 9 9 9 9 8 7 7 5 4 4 4 3 3 3 2 2 3 2 2 2 1 1 1 1 1 1 2 2 2 1 2 2 2 3 1 2 2 2 1 2
9 9 9 9 10 10 9 9 8 8 7 5 4 3 2 3 2 2 2 3 3 3 3 2 2 2 2 2 1 2 2 1 1 2 2 2 3 3 2 2 2 2 1
10 10 9 10 10 10 10 8 8 8 8 6 4 3 3 3 3 3 3 3 3 3 2 2 2 2 2 1 2 2 3 2 2 2 3 2 1 0 2 2 2 2 2
9 9 9 10 10 10 9 9 8 8 7 7 6 6 5 4 3 3 2 3 3 3 3 3 3 2 2 1 3 2 2 3 3 2 2 2 3 2 1 2 2 2 3
9 8 9 9 9 9 9 8 8 8 7 7 7 7 6 4 3 3 3 4 3 3 3 2 2 2 2 2 2 2 3 3 3 3 2 2 2 4 3 2 2 2 3
8 7 7 7 7 8 8 7 8 7 7 7 7 7 6 5 4 4 4 4 3 3 4 3 3 3 2 2 3 3 3 3 3 3 3 3 3 3 3 3 3 3 2
7 7 7 7 7 8 7 7 7 7 7 7 8 8 7 7 7 6 5 4 4 4 4 4 3 3 3 3 3 3 3 3 3 4 3 3 3 3 3 3 3 3 2
6 7 7 6 6 7 7 7 7 7 7 7 7 7 7 7 6 6 5 5 4 3 3 4 4 4 4 4 3 3 3 3 4 4 4 3 3 3 4 4 3 3 3
5 5 6 6 6 6 6 6 6 6 6 6 6 7 7 7 5 5 6 5 4 3 4 5 5 4 4 4 4 3 4 3 4 4 5 5 3 4 4 4 4 4 4
5 5 5 5 5 6 6 5 6 6 5 5 5 5 6 6 6 5 5 4 4 4 4 5 5 5 5 4 5 4 4 4 4 4 4 5 4 3 4 4 4 4 4
6 5 5 5 5 5 5 5 4 5 5 5 5 5 5 6 6 5 5 5 5 5 5 5 5 5 5 5 5 5 5 5 5 5 5 5 4 4 4 3 4 4 4
6 5 5 5 4 4 4 4 4 4 4 4 4 5 5 5 6 6 6 6 5 5 5 5 5 5 5 5 5 6 5 5 5 5 5 5 4 4 4 3 4 3 3
6 5 5 4 3 3 3 3 4 4 4 4 4 5 5 6 6 6 6 6 5 5 5 5 5 5 5 5 5 5 5 5 5 4 4 4 4 4 3 4 4 4 4
5 5 5 4 3 3 3 2 2 3 3 4 4 4 5 5 6 6 6 6 5 5 5 5 5 5 5 5 5 5 4 4 4 4 4 4 4 4 4 4 4 4 4
6 6 5 4 4 3 3 2 2 2 2 3 3 3 4 4 4 5 5 5 5 6 5 5 5 5 5 4 4 5 5 4 4 4 4 3 3 2 3 4 3 3 3
7 6 5 5 4 3 3 2 2 2 2 3 2 2 3 3 3 4 4 4 4 4 4 5 5 5 4 1 3 5 5 4 4 4 4 4 4 3 3 2 3 3 4
7 6 5 5 4 3 3 3 2 2 3 3 2 2 2 3 3 4 4 4 4 5 5 6 6 5 4 3 4 5 5 5 4 4 4 4 2 3 3 4 5 4 3
6 6 5 5 4 3 3 3 3 3 3 3 2 2 3 3 3 3 4 4 4 4 4 5 5 5 4 5 5 5 6 5 4 4 4 4 2 2 2 3 4 4 4
5 5 5 5 4 3 3 3 3 3 3 2 2 2 3 3 3 3 3 3 3 4 5 4 4 5 4 5 5 6 5 5 5 4 4 4 3 2 2 4 4 4 4
4 4 4 4 4 3 3 3 3 3 2 2 2 3 3 3 3 3 3 3 3 4 4 4 4 4 4 5 6 7 5 5 4 4 5 4 3 3 4 5 5 5 4
4 4 4 4 3 3 3 3 2 2 1 1 2 2 2 3 3 2 2 2 3 3 3 3 4 4 4 6 7 7 5 4 4 4 4 3 4 5 5 6 5 4 4
4 4 4 4 4 4 4 3 2 2 2 2 2 2 2 3 2 2 2 2 3 3 4 4 4 3 3 3 5 7 7 5 5 4 3 2 5 5 6 5 3 3 5
4 4 4 4 3 4 4 4 2 2 2 2 2 2 2 2 2 2 3 3 3 3 3 3 3 3 2 2 4 6 6 6 5 3 0 3 6 6 6 6 6 6 5
3 3 4 3 3 3 3 3 3 3 2 3 2 2 2 2 2 2 3 2 2 2 3 3 3 2 2 2 2 3 4 5 6 5 3 6 7 6 4 5 6 5 3
3 3 3 3 3 3 2 3 3 3 3 3 3 3 2 2 2 2 1 2 1 1 3 3 2 2 3 2 3 3 3 4 3 3 4 4 4 4 4 4 4 4 4
2 2 3 3 3 3 2 2 2 3 3 3 3 2 2 2 2 2 2 2 1 2 1 2 3 1 1 1 2 3 3 3 3 4 4 4 4 4 4 4 4 4 4
Wind_Direction
182 180 184 185 185 187 192 199 203 191 195 200 207 208 209 216 210 201 187 197 202 192 225 244 161 226 198 238 237 248 226 242 252 241 222 200 194 203 195 220 247 218 223
183 183 188 190 191 190 194 197 202 199 202 199 212 221 228 229 218 209 173 198 196 210 203 211 220 194 195 211 227 239 270 262 238 265 245 216 183 196 194 203 216 242 231
192 187 193 198 197 194 197 200 202 201 206 204 206 203 202 225 207 201 191 195 201 210 233 217 238 227 228 199 220 233 241 259 242 263 283 280 276 231 169 204 207 227 245
197 194 193 198 200 199 197 199 201 205 203 204 211 211 215 217 214 216 197 197 203 209 210 215 226 244 247 230 239 223 248 256 254 224 256 298 333 290 232 202 197 211 227
193 194 195 196 198 194 194 192 195 200 200 207 210 216 220 217 210 208 196 214 202 213 218 211 216 228 243 245 267 256 256 250 264 263 247 242 235 255 266 254 243 226 221
187 186 188 188 190 187 188 185 185 194 198 203 209 214 216 219 219 214 204 211 205 204 203 209 217 228 244 240 247 247 235 258 272 279 271 251 247 245 253 254 241 240 225
183 179 181 181 186 186 186 184 181 190 195 202 209 211 215 216 217 219 213 225 216 205 197 208 215 229 228 235 240 239 258 253 257 262 265 263 266 267 266 269 266 265 233
171 173 173 175 179 182 184 186 185 194 195 200 208 212 214 219 217 219 230 223 229 216 198 209 216 227 232 234 227 241 238 239 247 255 263 262 257 261 255 261 268 267 248
154 163 167 169 171 178 183 186 188 195 198 199 203 210 215 225 224 218 226 225 220 207 206 219 223 225 227 236 239 239 245 245 247 246 239 249 246 245 254 256 259 266 270
152 151 152 157 162 170 174 181 187 191 193 194 203 199 206 212 217 223 219 226 220 217 212 216 221 221 219 224 237 236 232 239 246 259 268 266 260 256 246 244 246 252 270
148 144 142 147 149 154 162 172 182 188 192 198 203 206 204 204 208 214 217 217 220 218 220 221 223 223 222 221 228 241 236 242 249 253 249 253 269 269 263 251 248 243 249
144 139 133 132 138 144 154 161 176 187 192 194 199 202 206 210 212 211 214 217 220 224 221 222 224 227 225 227 231 241 240 241 244 249 251 254 252 253 267 267 257 255 251
146 139 133 133 135 136 145 165 181 186 184 184 199 202 208 211 217 220 218 217 216 222 224 216 218 225 226 226 230 237 240 241 243 244 246 253 257 256 258 262 258 253 244
153 150 145 142 137 138 143 166 187 188 190 187 197 201 216 220 220 221 220 219 218 218 218 218 223 225 226 227 230 229 232 236 238 242 247 250 250 253 258 250 250 256 258
165 163 160 150 152 146 145 150 159 168 185 193 208 209 220 225 227 223 221 220 221 219 216 218 224 226 226 230 232 229 221 228 233 235 239 233 233 274 280 281 260 246 247
172 170 169 164 165 160 160 156 161 162 180 197 211 211 219 222 223 221 216 217 219 222 219 220 223 228 234 210 246 254 233 228 231 234 237 222 206 198 202 260 296 291 257
179 180 178 177 174 172 170 175 172 171 181 192 200 209 220 227 225 218 209 212 217 219 219 221 221 224 219 192 215 240 242 233 232 233 239 246 198 214 223 203 209 223 229
186 187 187 182 181 173 167 174 173 178 187 191 199 215 223 225 229 230 221 217 215 220 223 223 222 222 207 191 209 232 233 237 231 229 227 235 229 238 244 236 230 232 219
192 190 190 182 174 174 171 179 182 180 192 196 209 217 220 222 229 235 232 229 225 226 230 228 224 222 209 196 209 225 228 223 227 226 220 227 222 190 235 234 234 238 232
181 180 179 174 171 172 173 183 185 187 196 201 215 223 228 227 230 236 240 238 235 238 243 236 233 226 218 191 201 224 232 226 222 214 211 201 221 199 218 232 235 239 241
172 172 173 175 166 167 175 190 190 203 198 195 210 214 219 227 230 239 244 250 249 248 252 250 244 235 226 191 193 216 237 230 226 221 219 186 171 197 217 239 242 248 257
170 171 172 175 169 174 178 184 193 191 187 194 204 213 218 228 205 216 230 235 242 237 238 241 250 239 218 212 198 206 229 259 242 240 231 179 172 197 212 224 235 237 240
168 175 173 166 169 179 186 189 182 181 189 205 212 216 227 234 231 225 224 227 227 243 249 248 255 251 225 188 197 206 220 239 252 256 158 174 192 207 209 208 212 223 230
165 172 171 169 172 183 195 185 176 185 191 205 210 206 213 217 210 239 234 238 245 252 259 258 263 266 251 236 213 212 209 215 231 235 192 185 201 219 218 197 204 218 228
154 164 169 170 175 181 194 183 178 187 200 216 223 216 216 210 219 226 278 265 295 316 285 286 276 272 269 297 306 268 244 239 234 231 225 217 205 216 214 215 219 218 208
153 154 158 169 173 175 186 186 187 195 205 213 227 227 222 222 239 226 192 58 44 110 98 339 314 315 333 317 296 279 272 256 216 222 229 226 226 229 226 219 218 217 216